Temp
72 72 71 72 72 71 70 71 71 70 71 72 73 74 75 75 76 74 74 76 75 75 74 73 71 71 72 71 74 72 74 76 74 67 71 69 67 68 66 68 66 67 64
73 72 71 71 71 69 70 70 70 69 70 71 72 73 74 76 75 74 74 76 75 74 75 72 72 70 70 67 72 68 71 73 73 63 66 66 66 67 66 65 66 69 68
71 71 70 70 70 69 69 69 69 69 69 70 71 72 73 74 75 74 76 76 75 75 75 73 73 71 68 65 68 66 71 71 71 68 65 68 66 67 64 65 64 65 67
71 70 69 69 69 69 69 68 68 69 68 68 69 71 73 74 75 76 76 75 75 75 71 71 73 70 68 65 65 66 68 70 69 69 67 66 66 64 66 63 61 65 65
69 69 68 69 69 68 67 68 68 67 68 68 68 69 72 73 74 74 76 75 74 72 69 68 72 67 65 67 65 67 66 70 67 68 67 66 65 62 62 65 65 65 63
67 67 68 68 68 67 66 67 66 66 66 66 66 68 69 73 62 57 66 72 73 71 66 67 67 62 62 59 60 61 65 65 65 69 68 66 63 64 67 64 65 62 59
66 66 67 67 66 66 67 66 65 64 64 64 65 66 67 70 57 53 54 70 68 68 66 65 64 63 60 62 56 56 56 56 62 68 66 66 63 65 64 62 62 63 63
64 65 66 65 65 65 65 64 63 63 63 63 64 65 66 70 55 51 53 67 66 64 64 61 61 59 60 60 61 64 65 63 65 71 68 67 67 65 65 65 63 61 61
63 64 64 64 64 63 62 62 62 62 62 63 64 64 65 67 54 50 53 64 63 61 60 59 59 60 52 53 62 64 64 60 52 50 52 50 50 51 60 65 61 62 60
63 63 64 63 63 62 61 61 62 62 61 64 63 64 61 65 56 49 53 64 60 59 59 58 53 56 48 50 64 63 61 60 61 59 57 52 55 53 51 66 65 63 62
63 63 62 61 60 61 61 61 60 60 61 60 61 63 64 65 67 47 48 61 59 57 56 54 54 47 47 48 56 64 63 62 57 63 62 62 62 62 64 64 64 65 63
62 60 60 60 61 61 59 59 59 59 58 58 58 61 64 64 53 46 46 52 55 57 55 55 51 46 46 47 55 47 48 56 65 64 63 62 62 63 62 62 59 60 61
56 56 56 57 58 58 56 56 57 58 58 58 59 59 57 61 59 47 46 46 50 57 57 52 45 43 44 47 45 47 51 65 64 63 62 62 63 63 58 57 57 57 57
49 50 54 54 54 53 54 56 57 56 52 55 58 57 57 56 58 55 53 50 50 52 48 45 46 48 50 49 51 57 65 65 64 64 63 63 61 59 60 61 59 59 58
47 48 49 52 51 50 52 54 56 56 55 56 60 57 57 58 57 52 51 52 54 50 47 46 46 47 50 54 59 63 63 63 63 63 61 59 60 61 60 61 60 60 57
44 47 48 47 48 49 49 51 49 46 46 44 44 50 59 53 45 44 44 44 43 43 48 47 47 53 53 55 57 60 61 60 63 62 61 61 61 59 59 60 61 60 58
43 44 45 45 47 47 48 49 49 51 43 43 43 44 46 48 43 42 42 41 41 45 49 49 50 53 53 56 59 61 61 63 62 62 62 61 61 60 58 59 59 59 58
46 44 45 46 47 47 49 50 52 53 56 55 44 45 44 42 41 40 40 42 44 49 51 49 50 52 56 59 61 63 63 60 62 62 61 61 61 58 59 59 59 58 58
47 47 47 47 47 48 50 52 52 55 54 51 47 44 41 41 40 40 42 50 50 50 50 51 52 54 58 59 62 63 61 62 62 62 61 61 61 60 59 60 59 48 51
45 44 45 49 49 49 51 52 55 54 51 49 48 44 41 42 43 44 50 51 51 51 51 52 53 55 59 61 63 62 63 61 61 61 61 61 61 61 61 60 59 57 58
45 47 43 49 51 53 55 53 54 52 51 49 46 45 42 47 45 49 49 50 50 50 51 53 55 58 59 62 62 64 63 61 62 62 62 61 61 61 62 61 60 60 59
47 48 50 51 52 54 55 56 53 52 51 46 45 43 37 48 48 50 50 49 50 51 52 54 54 56 59 64 64 63 63 62 62 62 62 62 62 63 62 61 59 60 57
53 54 54 54 54 48 53 54 52 51 48 45 45 45 48 49 49 49 48 48 48 49 50 52 53 54 55 57 57 57 57 60 62 64 62 62 63 63 62 60 58 56 57
54 55 55 53 52 51 51 51 50 44 46 46 47 48 49 48 48 47 48 48 48 48 50 52 53 54 53 54 56 61 66 64 65 65 65 64 63 57 61 58 59 59 59
53 54 53 52 51 51 50 49 48 48 47 47 48 49 48 48 47 47 47 48 48 49 50 52 52 53 53 55 58 62 50 43 62 54 65 64 63 60 60 60 59 58 59
49 50 51 51 51 51 49 48 48 47 48 47 47 47 48 48 47 47 47 47 48 49 50 51 52 54 56 59 60 44 39 39 51 46 63 63 62 61 60 58 58 59 58
MSLP
1008.32 1008.53 1008.74 1008.72 1008.50 1008.70 1008.86 1008.87 1008.86 1008.89 1008.74 1008.45 1008.11 1007.71 1007.50 1007.39 1007.38 1007.53 1007.61 1007.67 1007.91 1007.84 1008.53 1008.93 1009.25 1009.65 1009.85 1009.76 1010.57 1011.18 1011.77 1011.89 1012.29 1014.59 1015.30 1016.22 1017.16 1017.65 1018.50 1019.07 1019.79 1020.08 1020.97
1007.77 1008.00 1008.20 1008.06 1007.91 1008.04 1008.21 1008.33 1008.46 1008.55 1008.43 1008.17 1007.71 1007.28 1006.94 1006.61 1006.55 1006.67 1006.63 1006.69 1007.03 1007.01 1007.22 1008.00 1008.27 1009.02 1009.52 1009.71 1009.61 1010.71 1011.36 1011.60 1012.06 1013.67 1014.98 1015.95 1016.65 1017.56 1018.09 1018.85 1019.23 1019.82 1020.17
1007.35 1007.49 1007.50 1007.25 1007.34 1007.55 1007.76 1007.87 1007.93 1007.99 1007.89 1007.64 1007.24 1006.65 1006.23 1005.92 1005.76 1005.79 1005.67 1005.51 1005.85 1006.15 1006.17 1006.75 1007.33 1007.98 1008.62 1009.27 1009.45 1010.31 1010.97 1011.45 1011.93 1012.80 1014.14 1015.28 1016.55 1017.23 1017.93 1018.52 1019.15 1019.79 1020.20
1006.67 1006.81 1006.77 1006.71 1006.80 1006.84 1007.03 1007.16 1007.16 1007.22 1007.23 1007.03 1006.65 1006.01 1005.47 1005.20 1004.96 1004.79 1004.74 1004.65 1004.73 1005.20 1005.49 1005.74 1006.47 1007.28 1007.71 1008.51 1009.04 1009.72 1010.26 1011.12 1011.84 1012.48 1013.50 1014.77 1015.93 1017.03 1017.45 1017.99 1018.77 1019.41 1019.65
1006.11 1006.10 1006.11 1006.09 1006.08 1006.14 1006.33 1006.24 1006.26 1006.43 1006.41 1006.27 1005.92 1005.37 1004.76 1004.33 1003.97 1003.79 1003.62 1003.61 1003.82 1004.13 1004.62 1005.09 1005.62 1006.47 1006.53 1007.25 1008.42 1009.14 1009.91 1010.73 1011.51 1012.20 1012.87 1014.19 1015.19 1016.17 1016.67 1017.16 1017.64 1018.56 1019.42
1005.68 1005.55 1005.52 1005.43 1005.28 1005.24 1005.34 1005.34 1005.42 1005.48 1005.45 1005.35 1005.01 1004.57 1003.90 1003.19 1002.88 1002.89 1003.02 1002.93 1003.04 1003.37 1004.02 1004.39 1005.07 1005.91 1006.27 1006.78 1007.63 1008.41 1008.74 1010.04 1010.87 1011.61 1012.08 1013.23 1014.25 1015.13 1015.98 1016.92 1017.42 1018.18 1018.63
1004.78 1004.59 1004.48 1004.36 1004.25 1004.23 1004.27 1004.39 1004.50 1004.57 1004.53 1004.37 1004.11 1003.68 1002.98 1002.25 1001.99 1002.07 1002.29 1002.20 1002.33 1002.61 1003.23 1003.90 1004.55 1005.47 1006.24 1006.86 1007.51 1008.67 1009.30 1009.79 1009.98 1010.71 1011.37 1012.69 1013.74 1014.53 1015.52 1016.50 1017.28 1017.62 1017.89
1003.98 1003.73 1003.59 1003.49 1003.30 1003.33 1003.42 1003.46 1003.59 1003.63 1003.55 1003.31 1003.01 1002.50 1001.97 1001.26 1001.10 1001.21 1001.40 1001.50 1001.68 1001.85 1002.44 1003.10 1003.78 1004.78 1005.34 1005.99 1007.18 1008.67 1009.65 1010.56 1011.11 1010.71 1011.51 1012.47 1013.34 1014.33 1015.15 1016.04 1017.16 1017.95 1018.82
1002.89 1002.69 1002.61 1002.56 1002.42 1002.39 1002.34 1002.45 1002.65 1002.65 1002.53 1002.18 1001.84 1001.35 1000.98 1000.38 1000.20 1000.48 1000.78 1000.80 1001.04 1001.41 1002.07 1002.77 1003.21 1004.06 1004.43 1005.27 1006.76 1008.09 1009.47 1010.92 1011.80 1011.52 1012.33 1013.16 1013.97 1014.60 1015.30 1016.06 1017.06 1017.46 1018.00
1001.85 1001.71 1001.63 1001.69 1001.61 1001.51 1001.51 1001.53 1001.60 1001.66 1001.33 1001.09 1000.63 1000.40 999.92 999.43 999.15 999.68 1000.06 1000.00 1000.43 1001.07 1001.56 1002.33 1002.52 1002.56 1004.87 1004.78 1006.22 1007.44 1008.85 1010.13 1010.85 1012.08 1013.64 1014.26 1014.55 1015.30 1016.06 1015.84 1016.33 1016.70 1017.42
1000.93 1000.73 1000.67 1000.85 1000.78 1000.60 1000.45 1000.44 1000.50 1000.47 1000.18 999.94 999.53 999.17 998.75 998.39 997.92 998.77 999.13 999.10 999.59 1000.59 1001.04 1001.95 1002.91 1003.10 1003.86 1005.18 1005.88 1006.73 1007.76 1009.25 1010.54 1011.49 1012.86 1013.88 1014.47 1015.27 1016.01 1016.51 1016.79 1016.83 1017.17
999.92 999.83 999.85 999.81 999.72 999.43 999.39 999.34 999.32 999.27 998.93 998.62 998.62 997.93 997.47 997.11 997.41 998.08 998.37 998.22 998.81 999.54 1000.15 1001.21 1002.51 1003.41 1004.13 1005.27 1005.91 1007.00 1008.01 1008.95 1009.89 1011.24 1012.27 1013.40 1013.97 1015.05 1016.24 1016.80 1017.67 1018.05 1018.15
999.59 999.30 999.11 998.93 998.74 998.68 998.49 998.21 998.05 997.99 997.69 997.43 997.39 996.90 996.65 996.42 997.03 997.43 997.81 998.33 998.70 999.09 999.24 1000.37 1002.26 1003.63 1004.53 1005.23 1006.24 1007.12 1007.75 1008.58 1009.75 1010.69 1011.82 1012.79 1013.91 1015.31 1016.59 1017.42 1018.35 1018.90 1019.10
998.96 998.47 998.05 997.70 997.60 997.57 997.52 997.21 996.85 996.64 996.68 996.63 996.39 995.81 995.91 995.99 996.36 996.91 997.61 998.01 998.47 999.26 999.82 1000.56 1002.17 1003.56 1004.36 1005.49 1006.75 1007.10 1007.64 1008.63 1009.37 1010.35 1011.68 1012.79 1014.55 1015.58 1016.26 1017.39 1017.77 1018.39 1018.80
997.96 997.55 997.14 996.63 996.59 996.48 996.25 995.93 995.65 995.46 995.76 995.63 995.01 994.92 994.76 994.73 995.07 995.73 996.77 997.39 997.57 998.63 1000.07 1000.55 1002.65 1003.91 1004.85 1005.73 1006.40 1006.97 1007.92 1008.94 1009.61 1010.72 1011.76 1012.91 1014.29 1015.07 1016.12 1017.26 1017.62 1017.88 1018.30
996.71 996.29 995.92 995.68 995.48 995.33 995.07 994.76 994.53 994.59 994.80 994.46 994.30 994.27 993.77 994.12 994.91 995.55 996.08 996.67 997.39 998.77 998.15 1000.06 1001.76 1002.95 1003.51 1004.83 1005.79 1006.69 1007.82 1008.65 1009.67 1010.57 1011.66 1012.76 1013.88 1014.87 1015.97 1017.07 1017.52 1017.80 1018.15
995.48 995.12 994.83 994.61 994.29 994.09 993.89 993.68 993.22 993.25 993.30 993.00 993.12 993.25 993.49 993.69 994.38 994.94 995.84 996.66 997.67 998.04 997.55 999.42 1000.73 1002.04 1003.19 1004.27 1005.15 1006.20 1007.38 1008.42 1009.75 1010.49 1011.50 1012.72 1013.73 1014.80 1015.92 1016.66 1017.09 1017.69 1018.24
994.01 993.82 993.71 993.30 993.12 992.89 992.67 992.47 992.27 992.38 992.00 991.90 992.13 992.26 992.47 993.17 993.80 994.71 995.63 997.05 997.83 997.36 997.44 998.86 1000.69 1001.57 1002.48 1003.77 1004.77 1005.83 1007.18 1008.62 1009.38 1010.31 1011.48 1012.59 1013.59 1014.67 1015.61 1016.23 1016.89 1017.38 1018.02
992.52 992.23 992.07 991.96 991.89 991.69 991.62 991.41 991.37 991.28 991.44 991.50 992.03 992.29 992.60 993.06 993.66 994.33 995.18 995.92 996.76 997.35 997.83 999.36 1000.16 1001.33 1002.28 1003.46 1004.51 1005.60 1006.97 1008.18 1009.08 1010.09 1011.23 1012.36 1013.50 1014.26 1015.04 1015.81 1016.54 1017.16 1017.80
991.37 991.07 991.01 990.70 990.65 990.65 990.61 990.52 990.39 990.32 990.63 991.15 991.86 992.55 993.49 994.08 994.75 995.38 995.39 995.74 996.33 997.15 998.15 999.13 999.92 1001.26 1002.13 1003.09 1004.21 1005.35 1006.76 1008.01 1009.08 1009.99 1011.03 1012.11 1012.99 1013.88 1014.56 1015.29 1016.08 1017.06 1017.55
990.10 989.75 989.71 989.82 989.76 989.64 989.57 989.75 989.77 990.02 990.23 990.87 991.64 992.09 992.33 992.95 993.98 994.87 995.17 995.60 996.38 997.20 997.95 998.88 1000.05 1001.03 1002.03 1002.95 1004.07 1005.08 1006.41 1007.60 1008.73 1009.72 1010.81 1011.73 1012.64 1013.23 1014.09 1015.02 1015.75 1016.52 1017.16
988.53 988.55 988.66 988.86 989.01 988.98 988.97 989.07 989.40 989.76 990.24 990.93 991.70 992.53 992.60 992.78 993.67 994.31 995.10 995.89 996.68 997.44 998.17 998.93 1000.06 1000.96 1001.90 1002.78 1003.80 1004.87 1006.18 1007.23 1008.41 1009.38 1010.34 1011.27 1012.23 1012.91 1013.84 1014.71 1015.52 1016.29 1017.13
987.35 987.63 987.73 987.90 988.07 988.27 988.56 988.97 989.39 989.89 990.46 991.14 991.84 992.67 992.98 993.33 993.87 994.56 995.49 996.30 997.10 998.10 999.03 999.81 1000.58 1001.60 1002.59 1003.49 1004.33 1005.23 1006.19 1007.05 1008.02 1008.94 1010.05 1011.01 1011.73 1012.73 1013.57 1014.37 1015.30 1016.32 1016.89
987.01 987.11 987.27 987.58 987.87 988.15 988.48 989.00 989.49 990.06 990.71 991.29 991.89 992.40 992.86 993.68 994.21 994.93 995.83 996.69 997.60 998.66 999.53 1000.19 1001.06 1001.98 1002.96 1003.77 1004.51 1005.03 1005.77 1007.15 1008.02 1008.84 1009.63 1010.55 1011.57 1012.78 1013.49 1014.35 1015.11 1015.93 1016.47
986.97 987.12 987.37 987.64 988.04 988.55 989.00 989.44 989.95 990.48 990.80 991.40 992.21 992.71 993.45 994.10 994.81 995.71 996.57 997.34 998.11 998.89 999.75 1000.44 1001.33 1002.29 1003.05 1003.87 1004.54 1005.15 1006.21 1007.31 1007.85 1008.73 1009.51 1010.39 1011.41 1012.51 1013.25 1013.93 1014.91 1015.73 1016.29
987.83 987.73 987.88 988.16 988.56 989.08 989.42 989.84 990.39 990.98 991.50 992.02 992.53 993.17 993.97 994.56 995.36 996.23 997.03 997.74 998.41 999.08 999.98 1000.78 1001.66 1002.33 1003.01 1003.82 1004.63 1005.73 1006.81 1007.58 1008.20 1008.78 1009.51 1010.35 1011.35 1012.36 1013.22 1013.89 1014.80 1015.29 1015.99
Wind_Speed
7 6 7 7 4 4 4 5 7 8 9 11 12 13 14 15 14 14 15 15 16 17 16 16 14 11 8 8 9 6 7 7 6 4 6 10 11 10 11 9 11 8 8
8 8 9 7 4 4 6 7 7 9 11 12 12 13 14 15 15 17 18 15 17 18 17 16 15 9 12 8 10 10 9 8 8 12 10 9 9 11 11 11 9 6 6
9 9 8 6 6 7 7 8 8 10 12 13 14 14 14 15 16 17 19 18 18 19 18 16 17 14 12 8 10 9 9 7 8 8 9 9 9 9 10 9 9 7 5
8 8 7 9 10 10 9 9 9 10 12 14 15 16 16 15 17 18 19 18 18 18 16 17 18 16 16 14 12 11 10 10 8 10 10 11 10 10 9 10 8 7 6
9 10 10 11 11 11 11 11 10 10 12 15 16 16 17 15 13 18 19 18 18 17 15 14 18 18 21 19 11 13 13 11 9 10 10 11 10 11 11 9 8 7 6
11 13 13 13 13 12 12 12 11 11 13 15 16 17 17 13 15 19 18 15 17 16 13 14 13 14 15 18 15 17 17 14 12 11 10 12 12 11 10 9 7 8 6
16 15 15 16 15 14 14 12 11 13 14 16 17 17 18 17 15 17 18 16 14 15 15 13 13 10 17 15 14 11 9 7 14 14 13 13 13 13 12 11 9 8 4
17 17 16 16 16 14 13 13 12 13 15 16 17 17 18 15 16 17 18 17 14 16 16 16 16 15 16 17 16 15 13 10 10 9 12 12 11 13 13 9 9 8 6
19 17 16 16 15 14 14 14 13 14 15 15 17 17 17 17 15 17 15 13 13 14 13 14 15 18 19 22 17 17 15 10 9 14 13 13 14 13 11 10 9 9 7
18 17 15 14 14 16 16 16 15 15 17 15 17 17 19 19 16 18 19 11 12 10 12 14 19 17 18 23 18 17 17 15 14 14 12 14 14 12 6 7 9 8 6
19 17 16 17 16 17 17 15 15 16 16 16 17 16 17 16 17 19 23 11 12 11 11 9 10 25 27 20 19 16 16 16 16 15 13 11 11 12 7 6 4 5 5
19 18 19 19 15 14 16 16 16 16 17 15 16 15 12 14 12 15 20 17 17 15 13 11 11 24 24 20 17 20 21 18 13 12 12 12 12 10 9 8 8 7 7
20 21 20 19 17 16 17 17 15 16 14 14 12 11 9 7 7 13 17 14 19 12 11 15 24 22 21 15 25 27 19 13 13 13 13 11 11 11 12 12 11 12 12
18 18 17 16 17 14 12 13 14 13 10 11 13 11 10 8 8 7 9 8 17 10 18 18 20 20 12 17 19 17 13 13 13 13 12 12 12 12 11 10 10 9 10
17 16 16 14 13 12 14 13 13 13 11 12 13 10 11 12 12 12 13 12 12 15 18 16 14 11 13 13 13 13 12 13 12 13 14 14 13 12 11 9 9 9 10
15 13 12 11 10 10 11 12 18 20 17 19 17 13 9 9 15 17 16 15 18 29 18 17 15 13 15 14 13 14 13 14 14 14 14 14 13 12 12 10 9 9 10
14 14 11 11 10 10 10 11 11 9 18 20 20 18 16 13 18 20 18 23 28 17 17 14 16 14 14 14 13 14 15 14 15 14 15 14 13 12 12 11 10 10 10
16 21 12 10 10 10 10 10 8 9 11 6 4 13 16 19 20 19 24 24 11 11 15 16 14 14 15 14 15 15 14 14 14 14 14 13 13 13 12 11 11 10 10
12 11 11 10 10 11 9 9 8 10 8 3 3 7 5 13 23 29 31 16 12 12 13 14 14 14 14 14 13 14 14 14 14 14 14 13 13 13 12 11 11 10 10
11 18 14 8 8 9 9 8 8 7 5 5 5 7 8 10 9 14 12 11 12 12 13 14 13 13 14 14 15 14 14 14 14 13 13 13 12 12 12 12 12 12 11
9 9 10 9 8 9 9 7 6 5 5 4 6 7 14 13 13 11 9 9 11 12 13 14 13 13 13 13 13 14 15 14 13 13 13 13 12 12 12 11 11 11 11
8 8 7 8 8 9 7 6 6 6 6 7 7 6 6 9 11 8 9 9 10 10 10 12 11 11 12 14 14 13 15 15 13 13 13 13 12 12 11 11 11 10 11
5 7 7 6 7 6 6 6 6 6 7 8 8 10 9 9 8 9 10 10 11 12 10 11 11 10 9 10 11 12 12 12 12 12 13 13 12 12 12 12 12 11 11
3 4 4 4 5 6 5 6 6 7 9 8 9 8 8 9 9 10 10 10 11 11 10 10 11 13 10 8 8 9 12 12 12 14 17 13 12 12 12 12 12 13 11
1 3 5 6 6 6 6 7 6 7 8 9 8 8 9 10 11 11 10 10 11 11 11 10 9 14 16 15 14 15 13 13 15 12 12 15 15 17 13 12 12 12 13
7 6 5 6 6 6 7 7 8 8 9 8 9 9 10 11 12 11 11 11 10 10 11 9 12 15 16 14 16 15 13 12 15 12 13 12 13 12 12 13 18 12 14
Wind_Direction
206 214 227 235 228 240 276 298 308 307 303 299 293 283 270 257 245 232 228 233 226 218 218 216 212 200 205 177 185 183 197 187 179 136 148 155 166 172 152 156 155 156 140
210 220 233 243 270 293 299 300 302 301 300 293 290 284 274 263 250 238 231 225 230 230 221 219 219 197 210 183 177 186 188 180 157 151 153 158 166 177 157 168 157 170 162
215 224 235 253 259 260 263 272 283 295 301 295 285 280 275 267 257 243 237 234 230 232 225 218 223 204 194 185 179 175 178 174 159 151 146 156 150 163 157 166 168 172 197
227 236 251 259 255 253 251 253 261 280 293 293 282 274 270 267 259 250 238 236 233 232 225 221 220 205 189 181 182 176 162 166 157 152 153 159 166 162 169 164 172 194 196
246 250 253 264 268 260 252 252 258 271 284 285 280 273 266 263 258 249 238 233 234 228 220 207 212 205 183 179 171 168 168 169 163 161 157 159 164 164 178 174 182 179 180
277 273 273 271 267 261 254 253 260 272 284 285 277 272 266 260 251 235 233 236 233 222 209 201 197 183 171 169 169 166 164 159 167 174 159 176 167 170 170 172 169 178 177
282 278 274 273 268 262 252 246 257 273 281 278 274 271 264 259 243 235 223 236 228 214 202 195 185 177 165 165 132 140 133 149 162 169 158 176 164 168 161 169 179 186 158
275 274 272 268 265 256 248 252 262 273 273 272 271 269 266 263 246 225 216 232 226 205 198 190 183 167 167 150 144 156 161 154 159 155 160 159 158 158 163 166 163 128 130
270 270 269 263 255 248 251 260 268 272 270 268 268 268 266 265 247 219 208 222 210 193 183 178 175 169 157 141 149 155 150 138 75 75 95 104 117 120 138 142 158 171 162
267 268 263 252 258 263 267 269 269 266 264 264 267 263 260 264 257 209 200 210 197 187 177 174 173 150 158 145 155 155 158 160 140 118 115 104 121 114 123 175 165 178 155
268 261 252 255 262 264 266 263 263 260 260 259 264 263 259 261 250 196 199 196 184 177 167 160 168 152 151 160 159 162 155 146 135 131 130 130 131 135 132 123 151 175 174
260 263 269 269 264 264 262 260 256 254 255 257 263 260 257 248 219 205 202 200 179 175 168 160 155 160 153 154 152 126 131 137 138 143 141 145 141 137 125 111 96 88 60
278 275 267 260 257 257 257 254 254 250 250 254 255 252 249 198 205 200 195 197 175 184 160 152 147 149 141 117 131 135 141 141 147 150 150 147 142 127 120 114 106 100 88
264 265 257 250 252 252 251 250 249 246 243 244 249 240 234 191 195 189 189 188 174 151 139 130 146 148 132 129 135 142 144 148 153 148 146 135 132 143 135 141 134 124 109
262 260 259 255 245 244 243 242 243 243 237 240 240 240 214 205 201 170 166 175 175 157 136 125 134 139 135 141 147 146 143 147 144 142 140 140 147 144 141 150 143 134 125
257 255 254 251 245 244 243 248 237 236 242 245 253 259 228 205 158 166 162 145 138 152 136 140 142 159 140 147 150 148 149 149 147 144 144 146 149 147 145 153 146 140 132
252 255 255 250 247 244 240 242 245 235 226 240 241 231 220 175 171 160 157 147 157 166 138 147 147 153 147 151 151 150 154 150 149 148 149 150 150 147 154 155 149 146 139
247 246 245 243 240 238 238 242 236 244 244 234 204 217 177 163 158 149 145 146 164 165 143 141 153 146 149 152 153 152 152 148 154 152 153 153 155 152 161 159 157 153 148
249 240 236 234 234 234 235 231 234 241 243 165 137 65 103 156 151 148 152 159 157 147 141 148 149 150 153 150 152 148 150 156 155 157 158 158 162 164 165 162 160 161 153
252 246 245 231 222 224 231 233 234 236 175 158 149 133 123 125 141 154 164 156 148 141 143 144 142 149 149 151 152 149 155 156 159 161 161 167 166 172 169 168 164 163 172
241 239 221 215 219 224 224 223 230 171 169 144 143 157 156 151 155 165 152 145 143 144 144 144 146 150 147 151 150 157 158 160 164 164 166 168 169 174 170 169 166 172 165
215 220 201 206 212 224 228 204 165 163 146 128 128 137 144 135 155 146 143 136 137 132 138 138 136 144 150 156 155 156 161 164 163 163 164 162 166 167 164 166 160 159 160
213 202 206 205 203 190 165 158 155 147 131 126 142 149 149 148 146 133 131 130 130 127 128 129 129 130 141 148 147 152 153 162 161 161 160 162 161 165 162 157 157 162 167
221 184 173 127 134 133 135 131 127 124 130 134 144 147 138 131 128 126 127 129 129 131 134 133 137 138 135 142 149 159 157 160 163 166 162 164 168 160 159 161 160 170 170
93 136 137 133 132 123 122 120 120 128 125 135 146 135 130 126 123 123 126 129 129 130 130 127 131 148 149 150 152 151 137 146 163 151 163 164 163 166 163 164 163 168 167
34 57 84 109 120 124 123 124 126 129 135 138 124 131 132 129 127 126 126 126 124 120 120 125 139 141 144 144 142 126 134 135 139 149 150 152 156 158 162 161 167 166 166